Moline, IL
on Thursday, October 24, 2013

Thursday
Previous Day Next Day
Daily Summary
 ActualAverageRecord
Temperature
Mean Temperature °F 50°F  
Max Temperature 41°F 61°F 83°F (1963)
Min Temperature 23°F 40°F 23°F (1981)
Degree Days
Heating Degree Days 33 15  
Month to date heating degree days 292 265  
Since 1 July heating degree days 370 369  
Cooling Degree Days 0 0  
Month to date cooling degree days 27 11  
Year to date cooling degree days 998 1000  
Moisture
Dew Point 22°F   
Average Humidity 66    
Maximum Humidity 88    
Minimum Humidity 44    
Precipitation
Precipitation 0.00 in 0.10 in 1.39 in (1967)
Month to date precipitation 1.40 2.28  
Year to date precipitation 34.97 32.53  
Snow
Snow 0.00 in 0.00 in in ()
Month to date snowfall 0.4 0.0  
Since 1 July snowfall 0.4 0.0  
Since 1 September snowfall 0.4 0.0  
Snow Depth 0.00 in   
Wind
Wind Speed 9 mph   
Max Wind Speed 18 mph   
Max Gust Speed 23 mph   
Visibility 10 miles   
Events     

Key: T is trace of precipitation, MM is missing value
Source: NWS Daily Summary
Time(CDT)TemperatureDew PointHumidity Pressure Visibility Wind DirectionWind SpeedGust SpeedPrecipitationEvents Conditions
12:17 AM 37.4°F 33.8°F 87% 30.07 in 10.0 miles WNW 13.8 mph - N/A   Overcast
12:52 AM 37.0°F 27.0°F 67% 30.10 in 10.0 miles NW 12.7 mph - N/A   Overcast
1:52 AM 36.0°F 24.1°F 62% 30.10 in 10.0 miles WNW 9.2 mph - N/A   Overcast
2:52 AM 36.0°F 23.0°F 59% 30.11 in 10.0 miles WNW 11.5 mph - N/A   Overcast
3:52 AM 36.0°F 19.9°F 52% 30.11 in 10.0 miles WNW 12.7 mph - N/A   Overcast
4:52 AM 35.1°F 21.0°F 57% 30.13 in 10.0 miles WNW 11.5 mph - N/A   Overcast
5:52 AM 34.0°F 21.9°F 61% 30.15 in 10.0 miles NW 11.5 mph - N/A   Overcast
6:52 AM 33.1°F 21.0°F 61% 30.17 in 10.0 miles WNW 12.7 mph - N/A   Scattered Clouds
7:52 AM 32.0°F 21.0°F 64% 30.19 in 10.0 miles WNW 9.2 mph - N/A   Clear
8:52 AM 35.1°F 21.0°F 57% 30.22 in 10.0 miles NW 11.5 mph - N/A   Clear
9:52 AM 37.9°F 21.9°F 53% 30.24 in 10.0 miles NW 11.5 mph - N/A   Clear
10:52 AM 39.0°F 19.9°F 46% 30.26 in 10.0 miles NW 12.7 mph - N/A   Scattered Clouds
11:52 AM 39.0°F 21.0°F 49% 30.27 in 10.0 miles WNW 12.7 mph 23.0 mph N/A   Overcast
12:52 PM 39.0°F 19.9°F 46% 30.28 in 10.0 miles NW 10.4 mph - N/A   Overcast
1:52 PM 39.9°F 21.0°F 47% 30.28 in 10.0 miles NW 12.7 mph - N/A   Overcast
2:52 PM 39.9°F 21.9°F 49% 30.29 in 10.0 miles NW 10.4 mph - N/A   Overcast
3:52 PM 39.9°F 21.9°F 49% 30.30 in 10.0 miles NW 15.0 mph - N/A   Overcast
4:52 PM 39.9°F 23.0°F 51% 30.30 in 10.0 miles WNW 9.2 mph - N/A   Overcast
5:52 PM 39.9°F 23.0°F 51% 30.31 in 10.0 miles WNW 10.4 mph - N/A   Overcast
6:52 PM 37.0°F 21.9°F 54% 30.33 in 10.0 miles WNW 6.9 mph - N/A   Partly Cloudy
7:52 PM 33.1°F 21.9°F 64% 30.34 in 10.0 miles West 5.8 mph - N/A   Clear
8:52 PM 32.0°F 23.0°F 69% 30.35 in 8.0 miles West 3.5 mph - N/A   Clear
9:52 PM 30.9°F 23.0°F 72% 30.36 in 10.0 miles Calm Calm - N/A   Clear
10:52 PM 28.9°F 23.0°F 78% 30.38 in 10.0 miles Calm Calm - N/A   Clear
11:52 PM 24.1°F 21.0°F 88% 30.38 in 10.0 miles Calm Calm - N/A   Clear
Astronomy
Sunrise:07:24 AM (CDT) Moon Rise:10:30 PM (CDT)10/24
Sunset:06:07 PM (CDT) Moon Set:12:27 PM (CDT)10/24
Moon Phase
Oct. 24 Oct. 26 Nov. 03 Nov. 10 Nov. 17

Copyright © 2017 The Weather Underground, Inc.















  Today is Tuesday, Nov. 22, the 327th day of 2016. There are 39 days left in the year.
1866 -- 150 years ago: Free luncheon is served at Phil Hein's Saloon every morning at 10 o'clock.
1891 -- 125 years ago: Bige Bickford was injured as he was coupling cars in the Rock Island Lines yard.
1916 -- 100 years ago: Clarence Granlund was elected president of the Lyceum at Augustana College.
1941 -- 75 years ago: Alice Schall, teacher at Grant School, supervised packing of Thanksgiving boxes for needy families.
1966 -- 50 years ago: The Rev. Lowell Campbell, pastor of the Milan Presbyterian Church, led the members of the congregation in a ground-breaking ceremony yesterday at the site of the new church one mile south of Andalusia Road on U.S. 67. The building will cost $285,000 and will be completed next fall.
1991 -- 25 years ago: Construction of a 200-room, $13.5 million hotel on the east end of the Moline civic center site will begin next spring, according to an agreement that was to be considered this morning by the Quad City Civic Center Authority.